DW8343 Weather Reports


time (UTC)temp
C
wind
direction
speed
KPH
gust
KPH
rain 1hr
cm
rain 24hr
cm
rain mn
cm
humidity
%
barometer
mb
20260510015103 25 160 3.2 9.7 0.00 0.03 0.03 48 1009.2
20260510014558 25 318 1.6 6.4 0.00 0.03 0.03 48 1009.3
20260510014055 25 25 0.0 16.1 0.00 0.03 0.03 48 1008.8
20260510013550 25 72 1.6 3.2 0.00 0.03 0.03 48 1009.0
20260510013046 25 74 1.6 4.8 0.00 0.03 0.03 47 1009.0
20260510012545 25 31 3.2 3.2 0.00 0.03 0.03 47 1008.9
20260510012042 26 139 1.6 3.2 0.00 0.03 0.03 46 1009.1
20260510011541 26 80 3.2 6.4 0.00 0.03 0.03 45 1009.1
20260510011037 26 24 1.6 3.2 0.00 0.03 0.03 45 1009.1
20260510010534 26 64 3.2 4.8 0.00 0.03 0.03 46 1009.0
20260510010032 26 191 0.0 3.2 0.00 0.03 0.03 46 1009.0
20260510005527 26 145 3.2 4.8 0.00 0.03 0.03 45 1009.0
20260510005025 26 36 1.6 1.6 0.00 0.03 0.03 45 1009.2
20260510004522 26 118 0.0 4.8 0.00 0.03 0.03 45 1009.2
20260510004021 26 191 3.2 6.4 0.00 0.03 0.03 45 1009.4
20260510003516 26 150 1.6 4.8 0.00 0.03 0.03 45 1009.4
20260510003012 27 269 1.6 4.8 0.00 0.03 0.03 45 1009.0
20260510002508 27 64 4.8 6.4 0.00 0.03 0.03 45 1009.1
20260510002005 27 67 3.2 6.4 0.00 0.03 0.03 45 1009.3
20260510001502 27 36 0.0 1.6 0.00 0.03 0.03 45 1009.3
20260510001000 27 49 3.2 3.2 0.00 0.03 0.03 45 1009.3
20260510000455 27 211 0.0 3.2 0.00 0.03 0.03 44 1009.2
20260509235952 27 254 3.2 9.7 0.00 0.03 0.03 43 1009.1
20260509235449 28 268 1.6 9.7 0.00 0.03 0.03 42 1009.1
20260509234945 28 76 1.6 3.2 0.00 0.03 0.03 42 1009.2
20260509234442 28 37 1.6 4.8 0.00 0.03 0.03 41 1009.4
20260509233940 29 46 1.6 6.4 0.00 0.03 0.03 41 1009.4
20260509233437 28 325 4.8 11.3 0.00 0.03 0.03 41 1009.3
20260509232933 28 37 3.2 17.7 0.00 0.03 0.03 40 1009.4
20260509232431 29 292 6.4 14.5 0.00 0.03 0.03 38 1009.3
20260509231927 29 90 3.2 11.3 0.00 0.03 0.03 35 1009.5
20260509231423 29 42 0.0 11.3 0.00 0.03 0.03 37 1009.5
20260509230922 29 41 1.6 4.8 0.00 0.03 0.03 36 1009.6
20260509230418 28 1 0.0 4.8 0.00 0.03 0.03 37 1009.6
20260509225914 29 48 1.6 9.7 0.00 0.03 0.03 36 1009.6
20260509225411 29 39 3.2 6.4 0.00 0.03 0.03 38 1009.9
20260509224907 29 8 0.0 6.4 0.00 0.03 0.03 37 1009.7
20260509224403 29 36 4.8 6.4 0.00 0.03 0.03 36 1010.0
20260509223900 29 46 3.2 6.4 0.00 0.03 0.03 37 1010.0
20260509223357 30 28 4.8 9.7 0.00 0.03 0.03 32 1010.1
20260509222854 30 40 1.6 6.4 0.00 0.03 0.03 33 1010.1
20260509222354 30 143 1.6 3.2 0.00 0.03 0.03 31 1010.1
20260509221850 30 112 1.6 3.2 0.00 0.03 0.03 33 1010.2
20260509221348 29 26 1.6 9.7 0.00 0.03 0.03 33 1010.2
20260509220843 30 81 3.2 4.8 0.00 0.03 0.03 33 1010.3
20260509220339 30 152 4.8 6.4 0.00 0.03 0.03 33 1010.3
20260509215835 30 30 1.6 6.4 0.00 0.03 0.03 34 1010.3
20260509215332 30 74 1.6 9.7 0.00 0.03 0.03 34 1010.4
20260509214829 30 343 1.6 12.9 0.00 0.03 0.03 36 1010.2
20260509214326 30 21 1.6 4.8 0.00 0.03 0.03 34 1010.2
20260509213823 30 127 4.8 9.7 0.00 0.03 0.03 32 1010.2
20260509213318 30 31 0.0 4.8 0.00 0.03 0.03 34 1010.4
20260509212816 30 17 1.6 3.2 0.00 0.03 0.03 36 1010.5
20260509212314 30 62 3.2 9.7 0.00 0.03 0.03 33 1010.5
20260509211809 30 49 0.0 4.8 0.00 0.03 0.03 38 1010.4
20260509211305 30 149 3.2 6.4 0.00 0.03 0.03 34 1010.7
20260509210802 30 50 1.6 4.8 0.00 0.03 0.03 35 1010.8
20260509210259 30 18 0.0 4.8 0.00 0.03 0.03 37 1010.7
20260509205758 30 76 4.8 6.4 0.00 0.03 0.03 36 1010.8
20260509205248 30 30 4.8 6.4 0.00 0.03 0.03 36 1010.8
20260509204744 30 99 1.6 9.7 0.00 0.03 0.03 36 1011.0
20260509204241 30 79 0.0 4.8 0.00 0.03 0.03 38 1010.9
20260509203737 30 124 1.6 4.8 0.00 0.03 0.03 35 1011.0
20260509203235 30 100 0.0 3.2 0.00 0.03 0.03 39 1011.0
20260509202731 30 247 3.2 6.4 0.00 0.03 0.03 35 1011.0
20260509202227 30 103 0.0 3.2 0.00 0.03 0.03 34 1011.1
20260509201721 29 275 1.6 6.4 0.00 0.03 0.03 36 1011.1
20260509201218 29 59 0.0 3.2 0.00 0.03 0.03 37 1011.2
20260509200714 29 14 0.0 4.8 0.00 0.03 0.03 37 1011.3
20260509200210 29 76 0.0 1.6 0.00 0.03 0.03 34 1011.3
20260509195705 30 49 1.6 4.8 0.00 0.03 0.03 36 1011.4
20260509195200 29 260 0.0 1.6 0.00 0.03 0.03 37 1011.3
20260509194655 30 61 4.8 6.4 0.00 0.03 0.03 34 1011.6
20260509194152 28 68 0.0 4.8 0.00 0.03 0.03 35 1011.6
20260509193649 29 53 3.2 6.4 0.00 0.03 0.03 34 1011.8
20260509193144 30 75 1.6 3.2 0.00 0.03 0.03 33 1011.7
20260509192641 30 75 0.0 1.6 0.00 0.03 0.03 39 1011.6
20260509192135 28 96 1.6 3.2 0.00 0.03 0.03 38 1011.8
20260509191630 29 16 1.6 4.8 0.00 0.03 0.03 36 1012.0
20260509191127 28 352 3.2 11.3 0.00 0.03 0.03 36 1011.9
20260509190623 28 256 1.6 4.8 0.00 0.03 0.03 36 1012.0
20260509190121 29 65 4.8 9.7 0.00 0.03 0.03 34 1012.0
20260509185618 29 70 0.0 1.6 0.00 0.03 0.03 40 1012.1
20260509185114 28 71 1.6 3.2 0.00 0.03 0.03 30 1012.1
20260509184612 28 65 1.6 4.8 0.00 0.03 0.03 32 1012.1
20260509184109 28 42 1.6 9.7 0.00 0.03 0.03 37 1012.2
20260509183604 28 188 1.6 3.2 0.00 0.03 0.03 37 1012.2
20260509183100 28 268 3.2 4.8 0.00 0.03 0.03 40 1012.2
20260509182557 28 73 4.8 6.4 0.00 0.03 0.03 40 1012.4
20260509182053 28 197 1.6 4.8 0.00 0.03 0.03 37 1012.3
20260509181552 28 63 1.6 4.8 0.00 0.03 0.03 39 1012.4
20260509181049 28 114 1.6 4.8 0.00 0.03 0.03 39 1012.5
20260509180544 27 50 1.6 12.9 0.00 0.03 0.03 38 1012.5
20260509180042 28 341 3.2 6.4 0.00 0.03 0.03 42 1012.6
20260509175537 27 197 1.6 4.8 0.00 0.03 0.03 42 1012.7
20260509175035 27 260 3.2 3.2 0.00 0.03 0.03 42 1012.8
20260509174531 28 59 1.6 3.2 0.00 0.03 0.03 41 1013.0
20260509174026 27 318 1.6 4.8 0.00 0.03 0.03 40 1012.8
20260509173520 27 310 0.0 3.2 0.00 0.03 0.03 41 1013.1
20260509173018 27 288 1.6 3.2 0.00 0.03 0.03 40 1013.1
20260509172515 27 207 3.2 6.4 0.00 0.03 0.03 43 1013.3
20260509172010 26 316 0.0 3.2 0.00 0.03 0.03 45 1013.2
20260509171506 26 68 4.8 6.4 0.00 0.03 0.03 41 1013.3
20260509171003 26 43 4.8 9.7 0.00 0.03 0.03 47 1013.2
20260509170458 26 284 3.2 11.3 0.00 0.03 0.03 49 1013.4
20260509165954 25 325 3.2 4.8 0.00 0.03 0.03 56 1013.5
20260509165453 25 60 1.6 11.3 0.00 0.03 0.03 58 1013.4
20260509164949 25 127 4.8 9.7 0.00 0.03 0.03 59 1013.4
20260509164445 25 11 1.6 4.8 0.00 0.03 0.03 58 1013.3
20260509163941 25 244 3.2 4.8 0.00 0.03 0.03 59 1013.4
20260509163439 24 32 4.8 6.4 0.00 0.03 0.03 59 1013.7
20260509162938 25 52 4.8 11.3 0.00 0.03 0.03 62 1013.6
20260509162437 24 242 4.8 6.4 0.00 0.03 0.03 62 1013.6
20260509161932 24 235 3.2 9.7 0.00 0.03 0.03 64 1013.7
20260509161429 23 235 0.0 3.2 0.00 0.03 0.03 64 1013.8
20260509160924 23 99 3.2 3.2 0.00 0.03 0.03 63 1013.7
20260509160420 23 262 3.2 4.8 0.00 0.03 0.03 63 1013.7
20260509155916 23 185 3.2 3.2 0.00 0.03 0.03 66 1013.5
20260509155413 23 223 3.2 4.8 0.00 0.03 0.03 67 1013.5
20260509154909 23 222 1.6 4.8 0.00 0.03 0.03 64 1013.6
20260509154405 23 302 1.6 3.2 0.00 0.03 0.03 66 1013.4
20260509153902 22 343 1.6 1.6 0.00 0.03 0.03 67 1013.6
20260509153400 22 271 0.0 1.6 0.00 0.03 0.03 70 1013.2
20260509152856 22 248 0.0 1.6 0.00 0.03 0.03 69 1013.4
20260509152352 22 108 0.0 3.2 0.00 0.03 0.03 69 1013.1
20260509151850 22 346 0.0 0.0 0.00 0.03 0.03 75 1013.2
20260509151345 22 346 0.0 0.0 0.00 0.03 0.03 72 1013.6
20260509150844 22 343 0.0 0.0 0.00 0.03 0.03 72 1013.5
20260509150341 22 343 0.0 1.6 0.00 0.03 0.03 74 1013.3
20260509145838 22 343 1.6 4.8 0.00 0.03 0.03 76 1013.2
20260509145333 22 344 0.0 3.2 0.00 0.03 0.03 78 1013.1
20260509144830 21 24 0.0 1.6 0.00 0.03 0.03 81 1013.1
20260509144327 21 38 1.6 1.6 0.00 0.03 0.03 82 1013.0
20260509143824 20 15 0.0 1.6 0.00 0.03 0.03 84 1013.2
20260509143321 20 67 0.0 3.2 0.00 0.03 0.03 85 1013.4
20260509142817 19 73 0.0 0.0 0.00 0.03 0.03 86 1013.1
20260509142313 18 114 0.0 1.6 0.00 0.03 0.03 90 1013.5
20260509141809 17 216 0.0 0.0 0.00 0.03 0.03 96 1013.6
20260509141306 17 216 0.0 1.6 0.00 0.03 0.03 96 1013.5
20260509140803 17 232 0.0 0.0 0.00 0.03 0.03 99 1013.6
20260509140300 16 279 0.0 0.0 0.13 0.03 0.03 99 1013.4
20260509135758 16 278 0.0 1.6 0.13 0.03 0.03 99 1013.4
20260509135255 16 28 0.0 0.0 0.00 0.00 0.00 99 1013.2
20260509134752 16 261 0.0 0.0 0.00 0.00 0.00 99 1013.4
20260509134250 15 278 0.0 0.0 0.00 0.00 0.00 99 1013.3
20260509133746 15 278 0.0 0.0 0.00 0.00 0.00 99 1013.2
20260509133243 15 283 0.0 0.0 0.00 0.00 0.00 99 1013.1
20260509132742 15 231 0.0 0.0 0.00 0.00 0.00 99 1013.0
20260509132240 14 256 0.0 0.0 0.00 0.00 0.00 99 1012.8
20260509131736 14 345 0.0 0.0 0.00 0.00 0.00 99 1013.0
20260509131233 13 332 0.0 0.0 0.00 0.00 0.00 99 1012.8
20260509130729 13 258 0.0 0.0 0.00 0.00 0.00 99 1012.6
20260509130225 13 355 0.0 0.0 0.00 0.00 0.00 99 1012.6
20260509125722 13 245 0.0 0.0 0.00 0.00 0.00 99 1012.6
20260509125219 12 245 0.0 0.0 0.00 0.00 0.00 99 1012.6
20260509124715 12 245 0.0 0.0 0.00 0.00 0.00 99 1012.4
20260509124212 12 245 0.0 0.0 0.00 0.00 0.00 99 1012.6
20260509123710 12 247 0.0 0.0 0.00 0.00 0.00 99 1012.5
20260509123207 12 248 0.0 0.0 0.00 0.00 0.00 99 1012.3
20260509122702 12 259 0.0 0.0 0.00 0.00 0.00 99 1012.3
20260509122159 12 249 0.0 0.0 0.00 0.00 0.00 99 1012.3
20260509121655 12 246 0.0 0.0 0.00 0.00 0.00 99 1012.3
20260509121153 12 246 0.0 0.0 0.00 0.00 0.00 99 1012.2
20260509120651 12 245 0.0 0.0 0.00 0.00 0.00 99 1012.2
20260509120149 12 246 0.0 0.0 0.00 0.00 0.00 99 1012.1
20260509115646 12 287 0.0 0.0 0.00 0.00 0.00 99 1012.1
20260509115144 12 288 0.0 0.0 0.00 0.00 0.00 99 1012.1
20260509114642 12 288 0.0 0.0 0.00 0.00 0.00 99 1012.1
20260509114141 12 288 0.0 0.0 0.00 0.00 0.00 99 1012.0
20260509113638 12 289 0.0 0.0 0.00 0.00 0.00 99 1011.9
20260509113135 12 289 0.0 0.0 0.00 0.00 0.00 99 1011.8
20260509112632 12 288 0.0 0.0 0.00 0.00 0.00 99 1011.9
20260509112129 12 291 0.0 0.0 0.00 0.00 0.00 99 1011.8
20260509111626 12 302 0.0 0.0 0.00 0.00 0.00 99 1011.7
20260509111123 12 302 0.0 0.0 0.00 0.00 0.00 99 1011.7
20260509110620 12 302 0.0 0.0 0.00 0.00 0.00 99 1011.6
20260509110117 12 301 0.0 0.0 0.00 0.00 0.00 99 1011.8
20260509105615 12 1 0.0 0.0 0.00 0.00 0.00 99 1011.7
20260509105113 12 1 0.0 0.0 0.00 0.00 0.00 99 1011.7
20260509104609 12 1 0.0 0.0 0.00 0.00 0.00 99 1011.6
20260509104108 12 1 0.0 0.0 0.00 0.00 0.00 99 1011.7
20260509103604 12 1 0.0 0.0 0.00 0.00 0.00 99 1011.8
20260509103102 12 1 0.0 0.0 0.00 0.00 0.00 99 1011.8
20260509102559 12 1 0.0 0.0 0.00 0.00 0.00 99 1012.0
20260509102056 12 1 0.0 0.0 0.00 0.00 0.00 99 1011.9
20260509101552 12 1 0.0 0.0 0.00 0.00 0.00 99 1011.9
20260509101049 12 1 0.0 0.0 0.00 0.00 0.00 99 1012.1
20260509100546 12 2 0.0 0.0 0.00 0.00 0.00 99 1012.1
20260509100044 12 2 0.0 0.0 0.00 0.00 0.00 99 1012.0
20260509095540 12 2 0.0 0.0 0.00 0.00 0.00 99 1012.3
20260509095037 12 2 0.0 0.0 0.00 0.00 0.00 99 1012.4
20260509094533 12 50 0.0 0.0 0.00 0.00 0.00 99 1012.5
20260509094031 13 50 0.0 0.0 0.00 0.00 0.00 99 1012.3
20260509093529 13 50 0.0 0.0 0.00 0.00 0.00 99 1012.3
20260509093026 13 50 0.0 0.0 0.00 0.00 0.00 99 1012.3
20260509092524 13 56 0.0 0.0 0.00 0.00 0.00 99 1012.3
20260509092023 13 56 0.0 0.0 0.00 0.00 0.00 99 1012.3
20260509091519 13 56 0.0 0.0 0.00 0.00 0.00 99 1012.2
20260509091016 13 56 0.0 0.0 0.00 0.00 0.00 99 1012.4
20260509090513 13 56 0.0 0.0 0.00 0.00 0.00 99 1012.3
20260509090011 13 56 0.0 0.0 0.00 0.00 0.00 99 1012.4
20260509085508 13 55 0.0 0.0 0.00 0.00 0.00 99 1012.3
20260509085004 13 55 0.0 0.0 0.00 0.00 0.00 99 1012.1
20260509084501 13 55 0.0 0.0 0.00 0.00 0.00 99 1012.1
20260509083958 14 55 0.0 0.0 0.00 0.00 0.00 99 1012.1
20260509083455 13 56 0.0 0.0 0.00 0.00 0.00 99 1012.4
20260509082952 13 56 0.0 0.0 0.00 0.00 0.00 99 1012.1
20260509082449 13 56 0.0 0.0 0.00 0.00 0.00 99 1012.1
20260509081946 13 56 0.0 0.0 0.00 0.00 0.00 99 1012.0
20260509081444 13 56 0.0 0.0 0.00 0.00 0.00 99 1012.1
20260509080940 14 56 0.0 0.0 0.00 0.00 0.00 99 1012.2
20260509080439 13 56 0.0 0.0 0.00 0.00 0.00 99 1012.4
20260509075936 13 56 0.0 0.0 0.00 0.00 0.00 99 1012.5
20260509075433 14 56 0.0 0.0 0.00 0.00 0.00 99 1012.4
20260509074931 14 56 0.0 0.0 0.00 0.00 0.00 99 1012.7
20260509074428 14 56 0.0 0.0 0.00 0.00 0.00 99 1012.7
20260509073924 14 56 0.0 0.0 0.00 0.00 0.00 98 1012.6
20260509073421 14 56 0.0 0.0 0.00 0.00 0.00 98 1012.8
20260509072917 14 56 0.0 0.0 0.00 0.00 0.00 98 1013.0
20260509072414 14 72 0.0 0.0 0.00 0.00 0.00 98 1012.7
20260509071911 14 72 0.0 0.0 0.00 0.00 0.00 98 1012.8
20260509071408 15 74 0.0 0.0 0.00 0.00 0.00 98 1013.0
20260509070906 15 135 0.0 0.0 0.00 0.00 0.00 98 1013.0
20260509070402 15 135 0.0 0.0 0.00 0.00 0.00 98 1012.7
20260509065857 15 135 0.0 0.0 0.00 0.00 0.00 98 1012.8
20260509065354 15 136 0.0 0.0 0.00 0.00 0.00 98 1012.8
20260509064850 15 136 0.0 0.0 0.00 0.00 0.00 98 1012.6
20260509064348 15 133 0.0 0.0 0.00 0.00 0.00 98 1012.7
20260509063845 15 47 0.0 0.0 0.00 0.00 0.00 97 1012.5
20260509063341 15 48 0.0 0.0 0.00 0.00 0.00 98 1012.8
20260509062839 15 327 0.0 0.0 0.00 0.00 0.00 98 1012.7
20260509062336 15 212 0.0 0.0 0.00 0.00 0.00 98 1013.0
20260509061833 15 176 0.0 0.0 0.00 0.00 0.00 97 1013.0
20260509061331 15 3 0.0 0.0 0.00 0.00 0.00 97 1012.8
20260509060828 15 3 0.0 0.0 0.00 0.00 0.00 97 1013.0
20260509060325 15 3 0.0 0.0 0.00 0.00 0.00 97 1013.1
20260509055820 15 5 0.0 0.0 0.00 0.00 0.00 97 1013.0
20260509055315 15 40 0.0 0.0 0.00 0.00 0.00 97 1013.0
20260509054813 15 91 0.0 0.0 0.00 0.00 0.00 97 1013.0
20260509054309 15 296 0.0 0.0 0.00 0.00 0.00 96 1013.0
20260509053808 16 296 0.0 0.0 0.00 0.00 0.00 96 1013.0
20260509053304 16 295 0.0 0.0 0.00 0.00 0.00 96 1012.7
20260509052803 16 297 0.0 0.0 0.00 0.00 0.00 95 1012.6
20260509052300 16 267 0.0 0.0 0.00 0.00 0.00 95 1012.8
20260509051758 16 159 0.0 0.0 0.00 0.00 0.00 95 1012.7
20260509051256 16 215 0.0 1.6 0.00 0.00 0.00 95 1012.6
20260509050752 16 320 0.0 0.0 0.00 0.00 0.00 95 1012.6
20260509050248 16 272 0.0 0.0 0.00 0.00 0.00 95 1012.8
20260509045746 16 292 0.0 0.0 0.00 0.76 0.76 96 1012.8
20260509045242 16 148 0.0 0.0 0.00 0.76 0.76 96 1013.0
20260509044740 16 148 0.0 1.6 0.00 0.76 0.76 97 1012.8
20260509044237 16 148 1.6 3.2 0.00 0.76 0.76 97 1013.0
20260509043734 16 148 0.0 0.0 0.00 0.76 0.76 97 1013.0
20260509043230 16 148 0.0 0.0 0.00 0.76 0.76 97 1013.0
20260509042726 16 4 0.0 4.8 0.00 0.76 0.76 98 1013.1
20260509042222 16 105 0.0 3.2 0.00 0.76 0.76 98 1013.1
20260509041719 16 105 0.0 1.6 0.00 0.76 0.76 98 1012.7
20260509041216 16 105 0.0 0.0 0.00 0.76 0.76 98 1012.7
20260509040715 16 105 0.0 0.0 0.00 0.76 0.76 98 1012.7
20260509040211 16 105 0.0 0.0 0.00 0.76 0.76 98 1012.5
20260509035708 16 105 0.0 0.0 0.00 0.76 0.76 98 1012.4
20260509035204 16 105 0.0 0.0 0.00 0.76 0.76 98 1012.6
20260509034702 16 105 0.0 1.6 0.00 0.76 0.76 98 1012.6
20260509034159 16 105 0.0 1.6 0.00 0.76 0.76 98 1012.3
20260509033656 16 105 0.0 0.0 0.00 0.76 0.76 98 1012.2
20260509033153 16 105 0.0 0.0 0.00 0.76 0.76 98 1011.8
20260509032650 16 105 0.0 0.0 0.00 0.76 0.76 98 1011.9
20260509032147 16 105 0.0 0.0 0.00 0.76 0.76 98 1011.8
20260509031645 16 105 0.0 0.0 0.00 0.76 0.76 98 1011.7
20260509031142 16 105 0.0 0.0 0.00 0.76 0.76 98 1011.6
20260509030640 17 105 0.0 0.0 0.00 0.76 0.76 98 1011.4
20260509030137 17 105 0.0 1.6 0.00 0.76 0.76 98 1011.1
20260509025633 17 105 0.0 0.0 0.00 0.76 0.76 98 1011.1
20260509025129 17 105 0.0 0.0 0.00 0.76 0.76 98 1011.0
20260509024625 17 104 0.0 1.6 0.00 0.76 0.76 98 1011.1
20260509024121 17 347 0.0 1.6 0.00 0.76 0.76 98 1011.0
20260509023619 17 94 0.0 0.0 0.00 0.76 0.76 98 1011.0
20260509023116 17 94 0.0 0.0 0.00 0.76 0.76 98 1011.1
20260509022612 17 94 0.0 0.0 0.00 0.76 0.76 97 1011.0
20260509022110 17 94 0.0 0.0 0.00 0.76 0.76 97 1011.0
20260509021607 17 94 0.0 0.0 0.00 0.76 0.76 97 1010.6
20260509021104 17 94 0.0 0.0 0.00 0.76 0.76 97 1010.8
20260509020602 17 94 1.6 1.6 0.00 0.76 0.76 97 1010.6
20260509020058 17 94 0.0 0.0 0.00 0.76 0.76 96 1010.3
20260509015558 17 94 0.0 0.0 0.00 0.76 0.76 96 1010.3